Погода в Бамуте

Россия / Чеченская Республика     43°09′45″N   45°12′03″E
темп.,
°C
ветер,
м/с
пор.,
м/с
влажн.,
%
обл.,
%
осадки,
мм/ч
давл.,
гПа
погр.,
м
24 мая, вт
вт2400:00+12зсз3795100 6.3 1007450
03:00+12з3694100 7.6 1007235
06:00+12з3694100 2.1 1009316
09:00+12з4892100 5.3 1010457
12:00+15зюз4574100 1.1 1010802
15:00+15ссз2375100 1.2 1011282
18:00+13зюз1183100 0.3 101218
21:00+12з2496100 1.7 1014130
25 мая, ср
ср2500:00+11зсз2594100 1.1 1015152
03:00+11з4894100 2.8 1016391
06:00+10з51094100 3.6 1018483
09:00+11зюз5891100 8.8 1020370
12:00+15зюз346578 0.5 10201167
15:00+17с225762 0.7 10191446
18:00+16ссз12715 0.3 1020180
21:00+11зюз228622 0.6 102225
26 мая, чт
чт2600:00+10зюз228914 0.0 102220
03:00+10юз228653 0.0 102220
06:00+12юз118146 0.0 102264
09:00+16с226847 0.1 1022543
12:00+19всв225321 0.1 10211680
15:00+19в225265 0.1 10201505
18:00+18вюв246811 0.0 1020147
21:00+12ю11824 0.0 102112
27 мая, пт
пт2700:00+11зюз22837 0.0 102015
03:00+10зюз2279100 0.0 102013
06:00+13ююз117159 0.0 102049
09:00+19всв22575 0.0 1019458
12:00+22в22485 0.0 10181135
15:00+23всв22430 0.0 10171440
18:00+21всв22650 0.0 101741
21:00+15ююз22771 0.0 101914
28 мая, сб
сб2800:00+14з22770 0.0 101813
03:00+13з22791 0.0 101813
06:00+15зюз11760 0.0 101856
09:00+20всв23600 0.0 1016582
12:00+24всв33520 0.0 10141249
15:00+25св22490 0.0 10131505
18:00+22ссв35690 0.0 1013181
21:00+16ююз11800 0.0 101511